LEJRGEML

Guest
Details From LEJR - Jerez
To GEML - Melilla
Flight Number -
Tags Routegen
Created
Modified
Stats Distance 185 nm / 343 km
Max Altitude 0 ft / 0 m
Waypoints 4
Social Downloads 6
Likes 0
Share VATSIM

Download

Looking for another format? Having issues loading an existing format? Contact us
Advertisement - Login to hide

Notes

None

Route

LEJR +36.60_-006.13 +35.65_-003.26 GEML

ID Type Via Altitude (ft/m) Position (lat/lon) Dist (leg/tot) Name
O LEJR APT - 0 / 0 36.73497 / -6.06481 - / 0 nm
+36.60_-006.13 DME - 0 / 0 36.60014 / -6.13041 8 / 8 nm
+35.65_-003.26 DME - 0 / 0 35.64712 / -3.25692 150 / 159 nm
O GEML APT - 0 / 0 35.28586 / -2.96118 26 / 185 nm

Altitude Profile

Advertisement - Login to hide

Weather


0- 5 10 15 20 25 30 35+ Temperature / °C

Clouds and Precipitation
Forecast for 2019-09-20 06:00 UTC. Updated 2 hours ago

Ground ~20,000 ft ~40,000 ft Winds

LEJR

Details ICAO LEJR (XRY)
Name Jerez
Region Spain
Timezone Europe/Madrid (UTC+2.0)
Stats Elevation 92 ft / 28 m (AMSL)
Location 36.744600° -6.060100°
Runways 1
Magnetic Variation 1.133° W

METAR

LEJR 200500Z 09003KT CAVOK 17/15 Q1014

Decode

TAF

TAF LEJR 192300Z 2000/2024 14002KT 9999 SCT015 TX28/2014Z TN16/2006Z BECMG 2010/2013 16012KT BECMG 2014/2017 23009KT

Decode

Departure Runways

ID Width Length Bearing (true/mag) Surface Threshold Overrun Markings Lighting
02 148 ft / 45 m 7,553 ft / 2,302 m 21.33° / 22.46° ASPHALT 0 ft / 0 m 0 ft / 0 m PREC-APP CENTERLINE EDGE THRESHOLD SALS
20 148 ft / 45 m 7,553 ft / 2,302 m 201.34° / 202.47° ASPHALT 0 ft / 0 m 0 ft / 0 m PREC-APP CENTERLINE EDGE THRESHOLD CALVERT

GEML

Details ICAO GEML (MLN)
Name MELILLA
Region Ceuta and Melilla
Timezone Africa/Casablanca (UTC+1.0)
Stats Elevation 155 ft / 47 m (AMSL)
Location 35.280200° -2.956550°
Runways 1
Magnetic Variation 0.263° W

METAR

GEML 200500Z 10005KT 060V140 8000 SCT008 BKN022 24/21 Q1014

Decode

TAF

TAF GEML 200200Z 2003/2103 08006KT 9999 SCT010 SCT015 TX26/2015Z TN22/2006Z TEMPO 2003/2103 BKN010

Decode

Destination Runways

ID Width Length Bearing (true/mag) Surface Threshold Overrun Markings Lighting
15 148 ft / 45 m 5,173 ft / 1,577 m 146.37° / 146.63° ASPHALT 978 ft / 298 m 0 ft / 0 m APP RAIL REIL-OMNI
33 148 ft / 45 m 5,173 ft / 1,577 m 326.38° / 326.64° ASPHALT 272 ft / 83 m 0 ft / 0 m APP RAIL REIL-OMNI

Popular Alternatives